Regional Weather Roundup
Issued by NWS

Home | Current Version | Previous Version | Text Only | Print | Product List | Glossary On
Versions: 1 2 3 4 5 6 7 8 9 10 11 12 13 14 15 16 17 18 19 20 21 22 23 24 25 26 27 28 29 30 31 32 33 34 35 36 37 38 39 40 41 42 43 44 45 46 47 48 49 50
000
ASUS43 KTOP 230208
RWRKS

WEATHER ROUNDUP FOR KANSAS
NATIONAL WEATHER SERVICE GOODLAND KS
800 PM CST MON JAN 22 2018

NOTE:  "FAIR" INDICATES FEW OR NO CLOUDS BELOW 12,000 FEET WITH NO
SIGNIFICANT WEATHER AND/OR OBSTRUCTIONS TO VISIBILITY.

KSZ001>006-013>018-027>032-041>047-230300-
NORTHWEST KANSAS

CITY           SKY/WX    TMP DP  RH WIND       PRES   REMARKS
GOODLAND       CLEAR     22  15  75 NW15      30.06R WCI   9
HAYS           CLEAR     31  23  72 NW21      30.00R WCI  18
HILL CITY      CLEAR     30  21  69 NW13G24   30.01R WCI  20
RUSSELL        CLEAR     32  26  78 NW18      29.97R WCI  20
$$

KSZ061>065-074>080-084>089-230300-
SOUTHWEST KANSAS

CITY           SKY/WX    TMP DP  RH WIND       PRES   REMARKS
DODGE CITY     CLEAR     32  16  51 NW16      30.05R WCI  21
ELKHART        CLEAR     35  14  42 NW8       30.12R
GARDEN CITY    CLEAR     30  16  56 NW12      30.07R WCI  20
GREAT BEND     CLEAR     32  23  69 W17       30.00R WCI  21
LIBERAL        CLEAR     25  12  58 W10       30.11R WCI  15
PRATT          CLEAR     33  19  57 NW16      30.02R WCI  22
$$

KSZ066>073-081>083-090>101-230300-
SOUTHEAST KANSAS

CITY           SKY/WX    TMP DP  RH WIND       PRES   REMARKS
COFFEYVILLE    CLOUDY    40  28  62 NW22G32   29.88R WCI  30
HUTCHINSON     CLEAR     35  26  69 NW21      29.95R WCI  24
MEDICINE LODGE   N/A     44  20  38 NW16G25   30.02R
NEWTON         CLOUDY    34  25  69 NW23G30   29.90R WCI  22
PARSONS        CLOUDY    37  29  72 NW22G30   29.87R WCI  26
WICHITA INTL   PTCLDY    38  23  55 NW24G35   29.93R WCI  27
WICHITA JABRA  PTCLDY    36  26  67 W20       29.92R WCI  25
WICHITA MCCONL PTCLDY    37  22  55 NW23G29   29.92R WCI  26
WINFIELD       PTCLDY    39  23  52 NW23G32   29.95R WCI  28
$$

KSZ007>012-019>026-033>040-048>060-102>105-230300-
NORTHEAST KANSAS

CITY           SKY/WX    TMP DP  RH WIND       PRES   REMARKS
CONCORDIA      CLOUDY    33  25  72 NW20G29   29.88R WCI  21
EMPORIA        CLOUDY    32  26  78 NW23G35   29.83R WCI  19
LAWRENCE       LGT SNOW  32  29  88 W23G31    29.74R FOG     WCI  19
MANHATTAN      CLOUDY    33  26  75 NW13G25   29.87R WCI  24
MARYSVILLE     LGT SNOW  30  27  86 NW33G39   29.83R WCI  14
OLATHE IND     CLOUDY    31  29  92 W22G28    29.72R FOG     WCI  18
OLATHE EXE     LGT SNOW  31  28  89 NW18G28   29.69R FOG     WCI  19
SALINA         CLOUDY    35  27  72 NW21      29.92R WCI  24
TOPEKA BILLARD CLOUDY    32  28  85 NW20G26   29.78R WCI  20
TOPEKA FORBES  LGT SNOW  32  28  85 NW25G35   29.77R FOG     WCI  19
$$




USA.gov is the U.S. government's official web portal to all federal, state and local government web resources and services.